This is the latest recevied weather packets stored in our database for station/object DG9MHV-10. If no packets are shown the sender has not sent any weather packets the latest 10 day(s).
| Time | Temp. | Humidity | Pressure | Rain* | Wind** | Luminosity | Snow |
|---|---|---|---|---|---|---|---|
| 1788467932 | 19.44° C | 100% | 1019.9 hPa | - | - | - | - |
| 1788467031 | 19.44° C | 100% | 1020.1 hPa | - | - | - | - |
| 1788466131 | 18.89° C | 100% | 1020 hPa | - | - | - | - |
| 1788465231 | 18.89° C | 100% | 1020 hPa | - | - | - | - |
| 1788464331 | 18.89° C | 100% | 1019.9 hPa | - | - | - | - |
| 1788463431 | 18.89° C | 100% | 1019.6 hPa | - | - | - | - |
| 1788462531 | 18.89° C | 100% | 1019.7 hPa | - | - | - | - |
| 1788461631 | 19.44° C | 100% | 1019.6 hPa | - | - | - | - |
| 1788460731 | 19.44° C | 100% | 1019.5 hPa | - | - | - | - |
| 1788459831 | 20° C | 100% | 1019.5 hPa | - | - | - | - |
| 1788458931 | 20.56° C | 100% | 1019.5 hPa | - | - | - | - |
| 1788458031 | 21.11° C | 100% | 1021 hPa | - | - | - | - |
| 1788457131 | 21.67° C | 100% | 1021.4 hPa | - | - | - | - |
| 1788456231 | 22.78° C | 100% | 1021.5 hPa | - | - | - | - |
| 1788455330 | 23.33° C | 100% | 1021.5 hPa | - | - | - | - |
| 1788454430 | 23.89° C | 100% | 1021.6 hPa | - | - | - | - |
| 1788453530 | 24.44° C | 100% | 1021.5 hPa | - | - | - | - |
| 1788452630 | 24.44° C | 100% | 1021.6 hPa | - | - | - | - |
| 1788450838 | 25° C | 100% | 1021.9 hPa | - | - | - | - |
| 1788449938 | 25.56° C | 100% | 1021.7 hPa | - | - | - | - |
| 1788449037 | 26.11° C | 100% | 1021.8 hPa | - | - | - | - |
| 1788448137 | 26.67° C | 100% | 1021.7 hPa | - | - | - | - |
| 1788447237 | 27.22° C | 100% | 1021.9 hPa | - | - | - | - |
| 1788446337 | 27.22° C | 100% | 1021.8 hPa | - | - | - | - |
| 1788445437 | 26.67° C | 100% | 1021.9 hPa | - | - | - | - |
* Rain since midnight (hover to see other rain measurements)
** Current wind speed in m/s (hover to see current wind gust speed)